Weather observations for the past three days for
Burlington - Carson County Airport
Imperial (Metric)
Date Time (mdt) Wind (mph) Vis. (mi.) Weather Sky Cond. Temperature (ºF) Relative Humidity Wind Chill (°F) Heat Index (°F) Pressure Precipitation (in)
Air Dwpt 6 hour altimeter (in) sea level (mb) 1 hr 3 hr 6 hr
Max. Min.
18 12:53 S 12 G 23 10.00 Fair CLR 80.6 0 0% 30.24 1018.9
18 11:53 S 10 G 21 10.00 Fair CLR 78.8 0 78.1 57.9 0% 30.25 1019.6
18 10:53 S 10 10.00 Fair CLR 75.2 0 0% 30.27 1020.2
18 09:53 S 14 10.00 Fair CLR 71.6 0 0% 30.27 1020.7
18 08:53 S 13 10.00 Fair CLR 68 0 0% 30.27 1020.9
18 07:53 S 8 10.00 Fair CLR 64.4 0 0% 30.28 1021.0
18 06:53 S 6 10.00 Fair CLR 60.8 0 0% 30.28 1021.4
18 05:53 S 6 10.00 A Few Clouds FEW110 57.2 0 63 57.9 0% 30.28 1021.5
18 04:53 S 6 10.00 Partly Cloudy SCT100 57.2 0 0% 30.27 1021.2
18 03:53 SW 6 10.00 A Few Clouds FEW095 59 0 0% 30.26 1020.0
18 02:53 S 9 10.00 Partly Cloudy SCT100 60.8 0 0% 30.26 1019.6
18 01:53 S 8 10.00 Mostly Cloudy BKN100 BKN110 62.6 0 0% 30.28 1020.0
18 00:53 S 6 10.00 A Few Clouds FEW100 62.6 0 0% 30.28 1020.0
17 23:53 SW 12 10.00 Partly Cloudy SCT110 62.6 0 70 61 0% 30.29 1020.6 0.27
17 22:53 SE 16 10.00 Light Rain OVC100 62.6 0 0% 30.31 1021.4 0.06
17 21:53 NE 8 6.00 Heavy Rain OVC085 60.8 0 0% 30.39 1024.4 0.14
17 20:53 N 16 G 24 7.00 Rain OVC075 62.6 0 0% 30.39 1024.8 0.07 0.07
17 19:53 NE 13 G 17 10.00 Overcast OVC110 69.8 0 0% 30.29 1021.2
17 18:53 SE 8 10.00 Fair CLR 68 0 0% 30.24 1019.9
17 17:53 SE 22 G 40 10.00 Thunderstorm in Vicinity and Breezy FEW045 SCT055 68 0 84.9 64.9 0% 30.25 1020.1 0.04 0.07
17 16:53 SW 14 10.00 Thunderstorm Light Rain FEW020 BKN090 OVC110 68 0 0% 30.22 1019.2 0.03
17 15:53 SW 17 G 28 10.00 Mostly Cloudy BKN060 BKN085 80.6 0 0% 30.24 1018.7
17 14:53 E 6 10.00 Fair CLR 84.2 0 0% 30.22 1017.8
17 13:53 SE 10 10.00 Fair CLR 84.2 0 0% 30.24 1018.4
17 12:53 Vrbl 7 10.00 Partly Cloudy SCT049 84.2 0 0% 30.26 1019.0
17 11:53 Calm 10.00 Fair CLR 80.6 0 82 62.1 0% 30.26 1019.3
17 10:53 Calm 10.00 Fair CLR 80.6 0 0% 30.26 1019.2
17 09:53 Calm 10.00 Fair CLR 77 0 0% 30.26 1019.2
17 08:53 N 6 10.00 Fair CLR 73.4 0 0% 30.26 1019.5
17 07:53 NW 5 10.00 Fair CLR 69.8 0 0% 30.25 1019.2
17 06:53 SW 7 10.00 Fair CLR 64.4 0 0% 30.22 1019.0
17 05:53 SW 9 10.00 Fair CLR 62.6 0 66.9 61 0% 30.21 1017.2
17 04:53 Calm 10.00 Fair CLR 62.6 0 0% 30.19 1016.4
17 03:53 N 7 10.00 A Few Clouds FEW100 64.4 0 0% 30.18 1015.9
17 02:53 SW 6 10.00 Fair CLR 64.4 0 0% 30.17 1015.6
17 01:53 SE 5 10.00 Thunderstorm in Vicinity SCT090 BKN110 66.2 0 0% 30.17 1015.4
17 00:53 SW 5 10.00 Mostly Cloudy BKN065 BKN090 BKN120 66.2 0 0% 30.16 1015.3
16 23:53 W 9 10.00 Fair CLR 66.2 0 88 66 0% 30.13 1014.5 0.48
16 22:53 SE 3 10.00 Fair CLR 69.8 0 0% 30.14 1014.7
16 21:53 SE 6 10.00 A Few Clouds FEW048 69.8 0 0% 30.16 1015.7
16 20:53 E 13 10.00 Fair CLR 69.8 0 0% 30.12 1014.5 0.48
16 19:53 W 10 10.00 A Few Clouds FEW100 71.6 0 0% 30.08 1013.4 0.01
16 18:53 S 20 G 26 1.00 Thunderstorm Heavy Rain BKN037 BKN080 OVC110 69.8 0 0% 30.08 1013.7 0.47
16 17:53 E 13 10.00 A Few Clouds FEW100 87.8 0 93 86 0% 30.05 1011.9
16 16:53 NE 13 10.00 Fair CLR 89.6 0 0% 30.04 1011.5
16 15:53 W 5 10.00 Fair CLR 91.4 0 0% 30.05 1011.3
16 14:53 Vrbl 6 10.00 Fair CLR 89.6 0 0% 30.05 1011.3
16 13:53 N 10 10.00 Fair CLR 91.4 0 0% 30.07 1011.7
16 12:53 N 9 10.00 Fair CLR 87.8 0 0% 30.09 1012.4
16 11:53 Vrbl 6 10.00 Fair CLR 86 0 86 60.1 0% 30.1 1013.0
16 10:53 Calm 10.00 Fair CLR 82.4 0 0% 30.11 1013.3
16 09:53 Vrbl 5 10.00 Fair CLR 78.8 0 0% 30.11 1013.3
16 08:53 NE 5 10.00 Fair CLR 75.2 0 0% 30.1 1012.9
16 07:53 N 6 10.00 Fair CLR 71.6 0 0% 30.1 1013.6
16 06:53 NW 8 10.00 Fair CLR 64.4 0 0% 30.1 1013.2
16 05:53 W 5 10.00 Fair CLR 60.8 0 71.1 60.1 0% 30.08 1012.3
16 04:53 NW 6 10.00 Fair CLR 62.6 0 0% 30.05 1011.2
16 03:53 W 7 10.00 Fair CLR 64.4 0 0% 30.06 1011.3
16 02:53 N 7 10.00 Fair CLR 68 0 0% 30.05 1010.6
16 01:53 NE 6 10.00 Fair CLR 69.8 0 0% 30.06 1011.1
16 00:53 SW 3 10.00 Fair CLR 71.6 0 0% 30.08 1011.8
15 23:53 S 3 10.00 Fair CLR 71.6 0 95 71.1 0% 30.11 1012.7
15 22:53 SW 6 10.00 Light Rain OVC110 75.2 0 0% 30.1 1012.2
15 21:53 NE 9 10.00 Fair CLR 80.6 0 0% 30.04 1010.1
15 20:53 NE 16 G 31 10.00 Partly Cloudy FEW060 SCT070 SCT090 84.2 0 0% 30.03 1009.8
15 19:53 NW 28 G 44 10.00 A Few Clouds and Windy FEW011 FEW100 78.8 0 0% 30.03 1010.6
15 16:53 NE 14 G 21 10.00 Fair CLR 96.8 0 0% 29.98 1008.3
15 15:53 NE 16 G 22 10.00 Fair CLR 98.6 0 0% 29.99 1008.6
15 14:53 N 13 G 26 10.00 Fair CLR 96.8 0 0% 30.01 1009.2
15 13:53 N 15 G 30 10.00 Fair CLR 98.6 0 0% 30.02 1009.2
Date Time (mdt) Wind (mph) Vis. (mi.) Weather Sky Cond. Air Dwpt Max. Min. Relative Humidity Wind Chill (°F) Heat Index (°F) altimeter (in) sea level (mb) 1 hr 3 hr 6 hr
6 hour
Temperature (ºF) Pressure Precipitation (in)